Location: Unspecified
(90.0000°S, 0.0000°E)
Time: 06:54:08
(UTC+00:00)

SPROUT - Visible Passes

Search period start: 22 August 2019 00:00
Search period end: 01 September 2019 00:00
Orbit: 600 x 611 km, 97.9° (Epoch: 21 August)

Date Brightness Start Highest point End Pass type
(mag) Time Alt. Az. Time Alt. Az. Time Alt. Az.
22 Aug ? 01:27:25 10° SE 01:31:17 30° ENE 01:34:52 12° NNE visible
22 Aug ? 03:04:17 10° ESE 03:08:10 30° NE 03:11:44 12° N visible
22 Aug ? 04:41:10 10° E 04:45:02 30° NNE 04:48:37 12° NW visible
22 Aug ? 06:18:02 10° ENE 06:21:53 30° N 06:25:30 11° WNW visible
22 Aug ? 07:54:54 10° NE 07:58:47 30° NNW 08:02:23 11° W visible
22 Aug ? 09:31:47 10° NNE 09:35:39 30° NW 09:39:15 11° WSW visible
22 Aug ? 11:08:39 10° N 11:12:31 30° WNW 11:16:08 11° SW visible
22 Aug ? 12:45:31 10° NNW 12:49:24 30° W 12:53:01 11° SSW visible
22 Aug ? 14:22:24 10° WNW 14:26:16 30° WSW 14:29:54 11° S visible
22 Aug ? 15:59:16 10° W 16:03:09 30° SW 16:06:46 11° SSE visible
22 Aug ? 17:36:09 10° WSW 17:40:01 30° SSW 17:43:39 11° SE visible
22 Aug ? 19:13:01 10° SW 19:16:53 30° SSE 19:20:32 11° ESE visible
22 Aug ? 20:49:53 10° SSW 20:53:46 30° SE 20:57:25 11° E visible
22 Aug ? 22:26:46 10° S 22:30:38 30° ESE 22:34:17 11° ENE visible
23 Aug ? 00:03:38 10° SSE 00:07:30 30° E 00:11:10 11° NNE visible
23 Aug ? 01:40:30 10° SE 01:44:23 30° ENE 01:48:03 11° N visible
23 Aug ? 03:17:23 10° ESE 03:21:15 30° NE 03:24:56 11° NNW visible
23 Aug ? 04:54:16 10° E 04:58:08 30° NNE 05:01:49 11° NW visible
23 Aug ? 06:31:08 10° ENE 06:35:00 30° N 06:38:41 11° WNW visible
23 Aug ? 08:08:00 10° NE 08:11:52 30° NNW 08:15:34 11° W visible
23 Aug ? 09:44:52 10° NNE 09:48:45 30° NW 09:52:27 11° WSW visible
23 Aug ? 11:21:45 10° NNW 11:25:37 30° WNW 11:29:20 11° SW visible
23 Aug ? 12:58:37 10° NW 13:02:29 30° W 13:06:12 11° SSW visible
23 Aug ? 14:35:29 10° WNW 14:39:22 30° WSW 14:43:05 11° S visible
23 Aug ? 16:12:22 10° W 16:16:14 30° SSW 16:19:58 11° SSE visible
23 Aug ? 17:49:14 10° WSW 17:53:07 30° S 17:56:51 11° SE visible
23 Aug ? 19:26:06 10° SW 19:29:59 30° SSE 19:33:43 11° ESE visible
23 Aug ? 21:02:59 10° SSW 21:06:51 30° SE 21:10:36 11° ENE visible
23 Aug ? 22:39:51 10° S 22:43:43 30° ESE 22:47:29 11° NE visible
24 Aug ? 00:16:43 10° SSE 00:20:36 30° E 00:24:22 11° NNE visible
24 Aug ? 01:53:36 10° SE 01:57:28 30° ENE 02:01:14 11° N visible
24 Aug ? 03:30:28 10° ESE 03:34:21 30° NE 03:38:07 11° NNW visible
24 Aug ? 05:07:21 10° E 05:11:13 30° NNE 05:15:00 11° NW visible
24 Aug ? 06:44:13 10° ENE 06:48:06 30° N 06:51:53 10° WNW visible
24 Aug ? 08:21:05 10° NNE 08:24:58 30° NNW 08:28:45 10° W visible
24 Aug ? 09:57:58 10° N 10:01:50 30° NW 10:05:38 10° WSW visible
24 Aug ? 11:34:50 10° NNW 11:38:43 30° WNW 11:42:31 10° SW visible
24 Aug ? 13:11:42 10° NW 13:15:35 30° WSW 13:19:24 10° SSW visible
24 Aug ? 14:48:35 10° WNW 14:52:27 30° SW 14:56:17 10° S visible
24 Aug ? 16:25:27 10° W 16:29:20 30° SSW 16:33:09 10° SSE visible
24 Aug ? 18:02:19 10° WSW 18:06:12 30° S 18:10:02 10° ESE visible
24 Aug ? 19:39:12 10° SW 19:43:05 30° SSE 19:46:55 10° E visible
24 Aug ? 21:16:04 10° SSW 21:19:57 30° SE 21:23:48 10° ENE visible
24 Aug ? 22:52:56 10° S 22:56:49 30° ESE 23:00:40 10° NE visible
25 Aug ? 00:29:49 10° SSE 00:33:42 30° E 00:37:33 10° NNE visible
25 Aug ? 02:06:41 10° SE 02:10:34 30° ENE 02:14:25 10° N visible
25 Aug ? 03:43:34 10° ESE 03:47:26 30° NE 03:51:19 10° NNW visible
25 Aug ? 05:20:26 10° ENE 05:24:19 30° NNE 05:28:12 10° NW visible
25 Aug ? 06:57:18 10° NE 07:01:11 30° N 07:05:04 10° WNW visible
25 Aug ? 08:34:11 10° NNE 08:38:04 30° NNW 08:41:56 10° W visible
25 Aug ? 10:11:03 10° N 10:14:56 30° WNW 10:18:49 10° WSW visible
25 Aug ? 11:47:55 10° NNW 11:51:48 30° W 11:55:42 10° SW visible
25 Aug ? 13:24:48 10° NW 13:28:41 30° WSW 13:32:34 10° SSW visible
25 Aug ? 15:01:40 10° WNW 15:05:33 30° SW 15:09:26 10° SSE visible
25 Aug ? 16:38:33 10° W 16:42:25 30° SSW 16:46:18 10° SE visible
25 Aug ? 18:15:25 10° WSW 18:19:18 30° S 18:23:11 10° ESE visible
25 Aug ? 19:52:17 10° SW 19:56:10 30° SSE 20:00:03 10° E visible
25 Aug ? 21:29:10 10° SSW 21:33:03 31° SE 21:36:55 10° ENE visible
25 Aug ? 23:06:02 10° S 23:09:55 31° ESE 23:13:48 10° NE visible
26 Aug ? 00:42:54 10° SSE 00:46:47 31° E 00:50:41 10° NNE visible
26 Aug ? 02:19:47 10° SE 02:23:39 31° ENE 02:27:33 10° N visible
26 Aug ? 03:56:39 10° E 04:00:32 31° NE 04:04:25 10° NNW visible
26 Aug ? 05:33:31 10° ENE 05:37:24 31° NNE 05:41:17 10° NW visible
26 Aug ? 07:10:24 10° NE 07:14:17 31° NNW 07:18:10 10° WNW visible
26 Aug ? 08:47:16 10° NNE 08:51:09 31° NW 08:55:02 10° W visible
26 Aug ? 10:24:09 10° N 10:28:02 31° WNW 10:31:54 10° WSW visible
26 Aug ? 12:01:01 10° NNW 12:04:54 31° W 12:08:47 10° SSW visible
26 Aug ? 13:37:53 10° NW 13:41:46 31° WSW 13:45:40 10° S visible
26 Aug ? 15:14:46 10° WNW 15:18:38 31° SW 15:22:32 10° SSE visible
26 Aug ? 16:51:38 10° W 16:55:30 31° SSW 16:59:24 10° SE visible
26 Aug ? 18:28:30 10° WSW 18:32:23 31° S 18:36:16 10° ESE visible
26 Aug ? 20:05:23 10° SW 20:09:16 31° SSE 20:13:09 10° E visible
26 Aug ? 21:42:15 10° SSW 21:46:08 31° SE 21:50:01 10° ENE visible
26 Aug ? 23:19:08 10° S 23:23:00 31° ESE 23:26:53 10° NE visible
27 Aug ? 00:56:00 10° SE 00:59:52 31° E 01:03:46 10° NNE visible
27 Aug ? 02:32:52 10° ESE 02:36:45 31° ENE 02:40:39 10° N visible
27 Aug ? 04:09:44 10° E 04:13:37 31° NNE 04:17:31 10° NNW visible
27 Aug ? 05:46:37 10° ENE 05:50:29 31° N 05:54:23 10° NW visible
27 Aug ? 07:23:29 10° NE 07:27:22 31° NNW 07:31:15 10° WNW visible
27 Aug ? 09:00:21 10° NNE 09:04:15 31° NW 09:08:08 10° WSW visible
27 Aug ? 10:37:14 10° N 10:41:07 31° WNW 10:45:00 10° SW visible
27 Aug ? 12:14:06 10° NNW 12:17:59 31° W 12:21:52 10° SSW visible
27 Aug ? 13:50:59 10° NW 13:54:51 31° WSW 13:58:45 10° S visible
27 Aug ? 15:27:51 10° WNW 15:31:44 31° SW 15:35:38 10° SSE visible
27 Aug ? 17:04:43 10° W 17:08:36 31° SSW 17:12:29 10° SE visible
27 Aug ? 18:41:36 10° WSW 18:45:28 31° S 18:49:22 10° ESE visible
27 Aug ? 20:18:28 10° SW 20:22:21 31° SSE 20:26:14 10° E visible
27 Aug ? 21:55:20 10° S 21:59:13 31° SE 22:03:07 10° ENE visible
27 Aug ? 23:32:12 10° SSE 23:36:05 31° ESE 23:39:59 10° NE visible
28 Aug ? 01:09:05 10° SE 01:12:58 31° ENE 01:16:51 10° NNE visible
28 Aug ? 02:45:57 10° ESE 02:49:50 31° NE 02:53:44 10° N visible
28 Aug ? 04:22:50 10° E 04:26:43 31° NNE 04:30:36 10° NNW visible
28 Aug ? 05:59:42 10° ENE 06:03:35 31° N 06:07:28 10° WNW visible
28 Aug ? 07:36:35 10° NE 07:40:27 31° NNW 07:44:21 10° W visible
28 Aug ? 09:13:27 10° NNE 09:17:19 31° NW 09:21:13 10° WSW visible
28 Aug ? 10:50:19 10° N 10:54:12 31° WNW 10:58:05 10° SW visible
28 Aug ? 12:27:11 10° NNW 12:31:04 31° W 12:34:58 10° SSW visible
28 Aug ? 14:04:04 10° NW 14:07:57 31° WSW 14:11:50 10° S visible
28 Aug ? 15:40:56 10° WNW 15:44:49 31° SW 15:48:43 10° SSE visible
28 Aug ? 17:17:48 10° W 17:21:41 31° SSW 17:25:35 10° SE visible
28 Aug ? 18:54:41 10° SW 18:58:34 31° S 19:02:27 10° ESE visible
28 Aug ? 20:31:33 10° SSW 20:35:26 31° SSE 20:39:20 10° E visible
28 Aug ? 22:08:25 10° S 22:12:18 31° SE 22:16:11 10° ENE visible
28 Aug ? 23:45:18 10° SSE 23:49:11 31° E 23:53:04 10° NE visible
29 Aug ? 01:22:10 10° SE 01:26:03 31° ENE 01:29:57 10° NNE visible
29 Aug ? 02:59:03 10° ESE 03:02:56 31° NE 03:06:49 10° NNW visible
29 Aug ? 04:35:55 10° E 04:39:48 31° NNE 04:43:42 10° NW visible
29 Aug ? 06:12:47 10° ENE 06:16:40 31° N 06:20:33 10° WNW visible
29 Aug ? 07:49:39 10° NE 07:53:32 31° NNW 07:57:26 10° W visible
29 Aug ? 09:26:32 10° NNE 09:30:25 31° NW 09:34:18 10° WSW visible
29 Aug ? 11:03:24 10° N 11:07:17 31° WNW 11:11:10 10° SW visible
29 Aug ? 12:40:17 10° NNW 12:44:10 31° W 12:48:03 10° SSW visible
29 Aug ? 14:17:09 10° NW 14:21:02 31° WSW 14:24:56 10° S visible
29 Aug ? 15:54:01 10° W 15:57:54 31° SW 16:01:48 10° SSE visible
29 Aug ? 17:30:54 10° WSW 17:34:47 31° SSW 17:38:40 10° SE visible
29 Aug ? 19:07:46 10° SW 19:11:39 31° S 19:15:32 10° ESE visible
29 Aug ? 20:44:38 10° SSW 20:48:31 31° SE 20:52:25 10° E visible
29 Aug ? 22:21:31 10° S 22:25:23 31° ESE 22:29:17 10° ENE visible
29 Aug ? 23:58:23 10° SSE 00:02:16 31° E 00:06:09 10° NNE visible
30 Aug ? 01:35:15 10° SE 01:39:08 31° ENE 01:43:02 10° N visible
30 Aug ? 03:12:08 10° ESE 03:16:00 31° NE 03:19:54 10° NNW visible
30 Aug ? 04:49:00 10° E 04:52:53 31° NNE 04:56:46 10° NW visible
30 Aug ? 06:25:52 10° ENE 06:29:45 31° N 06:33:39 10° WNW visible
30 Aug ? 08:02:45 10° NE 08:06:38 31° NNW 08:10:31 10° W visible
30 Aug ? 09:39:37 10° NNE 09:43:30 31° NW 09:47:24 10° WSW visible
30 Aug ? 11:16:29 10° N 11:20:22 31° WNW 11:24:16 10° SW visible
30 Aug ? 12:53:22 10° NW 12:57:15 31° W 13:01:09 10° SSW visible
30 Aug ? 14:30:14 10° WNW 14:34:07 31° WSW 14:38:01 10° S visible
30 Aug ? 16:07:06 10° W 16:10:59 31° SW 16:14:53 10° SSE visible
30 Aug ? 17:43:59 10° WSW 17:47:52 31° S 17:51:45 10° SE visible
30 Aug ? 19:20:51 10° SW 19:24:44 31° SSE 19:28:38 10° ESE visible
30 Aug ? 20:57:43 10° SSW 21:01:37 31° SE 21:05:30 10° ENE visible
30 Aug ? 22:34:36 10° S 22:38:28 31° ESE 22:42:22 10° NE visible
31 Aug ? 00:11:28 10° SSE 00:15:21 31° E 00:19:15 10° NNE visible
31 Aug ? 01:48:20 10° SE 01:52:13 31° ENE 01:56:08 10° N visible
31 Aug ? 03:25:13 10° ESE 03:29:06 31° NE 03:32:59 10° NNW visible
31 Aug ? 05:02:05 10° E 05:05:58 31° NNE 05:09:52 10° NW visible
31 Aug ? 06:38:57 10° ENE 06:42:50 31° N 06:46:44 10° WNW visible
31 Aug ? 08:15:50 10° NE 08:19:43 31° NNW 08:23:37 10° W visible
31 Aug ? 09:52:42 10° N 09:56:35 31° NW 10:00:29 10° WSW visible
31 Aug ? 11:29:34 10° NNW 11:33:28 31° WNW 11:37:22 10° SW visible
31 Aug ? 13:06:27 10° NW 13:10:20 31° W 13:14:14 10° SSW visible
31 Aug ? 14:43:19 10° WNW 14:47:12 31° SW 14:51:07 10° S visible
31 Aug ? 16:20:11 10° W 16:24:04 31° SSW 16:27:58 10° SSE visible
31 Aug ? 17:57:04 10° WSW 18:00:57 31° S 18:04:51 10° SE visible
31 Aug ? 19:33:56 10° SW 19:37:49 31° SSE 19:41:43 10° E visible
31 Aug ? 21:10:48 10° SSW 21:14:42 31° SE 21:18:36 10° ENE visible
31 Aug ? 22:47:41 10° S 22:51:34 31° ESE 22:55:28 10° NE visible
